星链-32270 (STARLINK-32270)

导读 | 星芒AI

STARLINK-32270 是 SpaceX 星链计划中的一颗低轨通信卫星,属于第 12 批星链卫星(v1.5 版本)。该卫星于 2023 年 8 月 30 日由猎鹰 9 号火箭从美国佛罗里达州肯尼迪航天中心发射升空。它运行在约 540 公里的轨道高度,旨在为全球用户提供高速互联网服务。星链卫星采用先进推进系统和激光通信技术,具备自动避碰功能,以减少太空碎片风险。该计划最终目标是部署数万颗卫星,构建覆盖全球的宽带网络。

基本信息
目录编号:
60364
目录名称:
STARLINK-32270
国际标识:
2024-138K
轨道中心:
EARTH
卫星名称:
星链-32270 (STARLINK-32270)
卫星全名:
星链-32270 (STARLINK-32270)
卫星状态:
在轨 (已飞行503 天)
发射日期:
2024-08-04 UTC
国别 :
美国 (US)
星等 :
--
轨道信息
数据来源 国际轨道数据
星历时间: 2025-12-20T06:11:39+0800
8小时前
查看轨道信息
半长轴: 6853.348km
偏心率: 0.0001298
轨道倾角: 53.163°
近地点辐角 79.408°
升交点赤经 320.219°
平近点角 280.706°
近地点: 474.321km
远地点: 476.101km
周期: 94.105分钟
每日圈数: 15.302016
详细信息
卫星平台:
Starlink v2.0 mini
运营商:
太空探索技术公司
运营商所在国:
美国
制造商(研发单位):
太空探索技术公司
制造商所在国:
美国
使用方式:
暂无
卫星简介
星链(Starlink)计划是由太空探索技术公司(SpaceX)提出的一个巨型低轨卫星互联网星座项目,计划在2019年至2024年间在太空搭建由约1.2万颗卫星组成的“星链”网络,其中1584颗将部署在地球上空550千米处的近地轨道,并从2020年开始工作。该卫星仍在工作。
2D轨道图
3D轨道图
轨道高度分析图
轨道倾角分析图
轨道综合分析图
查看轨道综合分析图